Location: Banff
(51.1667°N, 115.5667°W)
Time: 22:34:43
(UTC+00:00)

Envisat - Visible Passes

Search period start: 26 November 2022 00:00
Search period end: 06 December 2022 00:00
Orbit: 763 x 765 km, 98.2° (Epoch: 26 November)

Date Brightness Start Highest point End Pass type
(mag) Time Alt. Az. Time Alt. Az. Time Alt. Az.
26 Nov 5.9 10:26:05 10° ENE 10:26:58 11° ENE 10:26:58 11° ENE visible
26 Nov 3.3 12:02:50 10° NNE 12:07:08 61° NE 12:07:08 61° NE visible
26 Nov 4.2 13:42:44 10° N 13:46:25 21° WNW 13:47:18 20° WNW visible
27 Nov 4.5 11:26:03 10° NNE 11:29:28 32° ENE 11:29:28 32° ENE visible
27 Nov 3.5 13:05:10 10° N 13:09:38 36° WNW 13:09:38 36° WNW visible
28 Nov 5.8 00:26:59 10° SW 00:30:11 17° W 00:33:22 10° NW visible
28 Nov 5.5 10:49:47 10° NE 10:51:50 17° ENE 10:51:50 17° ENE visible
28 Nov 3.2 12:27:54 10° N 12:32:00 55° NNW 12:32:00 55° NNW visible
28 Nov 4.6 14:08:33 10° NNW 14:11:07 14° NW 14:12:10 13° WNW visible
29 Nov 4.0 11:50:55 10° NNE 11:54:22 41° NE 11:54:22 41° NE visible
29 Nov 4.0 13:30:34 10° N 13:34:32 25° WNW 13:34:32 25° WNW visible
30 Nov 5.1 11:14:15 10° NNE 11:16:44 23° NE 11:16:44 23° NE visible
30 Nov 3.5 12:53:05 10° N 12:56:55 39° NW 12:56:55 39° NW visible
01 Dec 5.7 00:14:20 10° SW 00:18:04 20° W 00:21:50 10° NW visible
01 Dec 5.9 10:38:17 10° NE 10:39:07 12° ENE 10:39:07 12° ENE visible
01 Dec 3.7 12:15:56 10° NNE 12:19:18 43° NNE 12:19:18 43° NNE visible
01 Dec 4.4 13:56:11 10° NNW 13:59:20 17° NW 13:59:28 17° NW visible
02 Dec 4.6 11:39:01 10° NNE 11:41:41 29° NE 11:41:41 29° NE visible
02 Dec 3.9 13:18:25 10° N 13:21:51 28° NW 13:21:51 28° NW visible
03 Dec 6.0 00:41:17 10° WSW 00:43:28 13° W 00:45:40 10° WNW visible
03 Dec 5.5 11:02:31 10° NE 11:04:05 17° NE 11:04:05 17° NE visible
03 Dec 3.8 12:41:04 10° N 12:44:15 36° NNW 12:44:15 36° NNW visible
03 Dec 4.8 14:22:27 10° NNW 14:23:59 11° NW 14:24:25 11° NW visible
04 Dec 4.3 12:03:58 10° NNE 12:06:39 32° NNE 12:06:39 32° NNE visible
04 Dec 4.3 13:43:55 10° N 13:46:50 19° NW 13:46:50 19° NW visible
05 Dec 5.1 11:27:10 10° NNE 11:29:04 21° NE 11:29:04 21° NE visible
05 Dec 4.0 13:06:19 10° N 13:09:15 28° NNW 13:09:15 28° NNW visible
